Year,Month,Day,Hour,Minute,Value (Times are PST for temperature in C)
2020,04,02,00,00,-12.50
2020,04,02,00,01,-12.50
2020,04,02,00,02,-12.60
2020,04,02,00,03,-12.60
2020,04,02,00,04,-12.60
2020,04,02,00,05,-12.70
2020,04,02,00,06,-12.70
2020,04,02,00,07,-12.80
2020,04,02,00,08,-12.80
2020,04,02,00,09,-12.80
2020,04,02,00,10,-12.80
2020,04,02,00,11,-12.90
2020,04,02,00,12,-12.90
2020,04,02,00,13,-12.90
2020,04,02,00,14,-12.90
2020,04,02,00,15,-12.90
2020,04,02,00,16,-13.00
2020,04,02,00,17,-13.00
2020,04,02,00,18,-13.00
2020,04,02,00,19,-13.10
2020,04,02,00,20,-13.10
2020,04,02,00,21,-13.10
2020,04,02,00,22,-13.00
2020,04,02,00,23,-13.00
2020,04,02,00,24,-12.90
2020,04,02,00,25,-12.90
2020,04,02,00,26,-12.90
2020,04,02,00,27,-12.90
2020,04,02,00,28,-12.90
2020,04,02,00,29,-12.90
2020,04,02,00,30,-12.90
2020,04,02,00,31,-12.90
2020,04,02,00,32,-12.90
2020,04,02,00,33,-12.80
2020,04,02,00,34,-12.80
2020,04,02,00,35,-12.80
2020,04,02,00,36,-12.80
2020,04,02,00,37,-12.80
2020,04,02,00,38,-12.80
2020,04,02,00,39,-12.80
2020,04,02,00,40,-12.80
2020,04,02,00,41,-12.80
2020,04,02,00,42,-12.80
2020,04,02,00,43,-12.80
2020,04,02,00,44,-12.90
2020,04,02,00,45,-12.90
2020,04,02,00,46,-12.90
2020,04,02,00,47,-13.00
2020,04,02,00,48,-13.00
2020,04,02,00,49,-13.00
2020,04,02,00,50,-13.10
2020,04,02,00,51,-13.10
2020,04,02,00,52,-13.20
2020,04,02,00,53,-13.20
2020,04,02,00,54,-13.20
2020,04,02,00,55,-13.30
2020,04,02,00,56,-13.30
2020,04,02,00,57,-13.30
2020,04,02,00,58,-13.30
2020,04,02,00,59,-13.30
2020,04,02,01,00,-13.30
2020,04,02,01,01,-13.30
2020,04,02,01,02,-13.40
2020,04,02,01,03,-13.40
2020,04,02,01,04,-13.40
2020,04,02,01,05,-13.50
2020,04,02,01,06,-13.50
2020,04,02,01,07,-13.50
2020,04,02,01,08,-13.60
2020,04,02,01,09,-13.60
2020,04,02,01,10,-13.60
2020,04,02,01,11,-13.60
2020,04,02,01,12,-13.70
2020,04,02,01,13,-13.70
2020,04,02,01,14,-13.70
2020,04,02,01,15,-13.70
2020,04,02,01,16,-13.70
2020,04,02,01,17,-13.70
2020,04,02,01,18,-13.70
2020,04,02,01,19,-13.70
2020,04,02,01,20,-13.70
2020,04,02,01,21,-13.70
2020,04,02,01,22,-13.70
2020,04,02,01,23,-13.70
2020,04,02,01,24,-13.70
2020,04,02,01,25,-13.80
2020,04,02,01,26,-13.80
2020,04,02,01,27,-13.80
2020,04,02,01,28,-13.80
2020,04,02,01,29,-13.80
2020,04,02,01,30,-13.90
2020,04,02,01,31,-13.90
2020,04,02,01,32,-13.90
2020,04,02,01,33,-13.90
2020,04,02,01,34,-13.90
2020,04,02,01,35,-13.90
2020,04,02,01,36,-13.90
2020,04,02,01,37,-13.90
2020,04,02,01,38,-13.90
2020,04,02,01,39,-13.90
2020,04,02,01,40,-13.90
2020,04,02,01,41,-13.90
2020,04,02,01,42,-14.00
2020,04,02,01,43,-14.00
2020,04,02,01,44,-14.00
2020,04,02,01,45,-14.10
2020,04,02,01,46,-14.10
2020,04,02,01,47,-14.10
2020,04,02,01,48,-14.20
2020,04,02,01,49,-14.20
2020,04,02,01,50,-14.20
2020,04,02,01,51,-14.30
2020,04,02,01,52,-14.30
2020,04,02,01,53,-14.40
2020,04,02,01,54,-14.40
2020,04,02,01,55,-14.40
2020,04,02,01,56,-14.50
2020,04,02,01,57,-14.60
2020,04,02,01,58,-14.60
2020,04,02,01,59,-14.60
2020,04,02,02,00,-14.60
2020,04,02,02,01,-14.70
2020,04,02,02,02,-14.70
2020,04,02,02,03,-14.70
2020,04,02,02,04,-14.70
2020,04,02,02,05,-14.70
2020,04,02,02,06,-14.70
2020,04,02,02,07,-14.80
2020,04,02,02,08,-14.80
2020,04,02,02,09,-14.90
2020,04,02,02,10,-14.90
2020,04,02,02,11,-14.90
2020,04,02,02,12,-15.00
2020,04,02,02,13,-15.00
2020,04,02,02,14,-15.00
2020,04,02,02,15,-15.10
2020,04,02,02,16,-15.10
2020,04,02,02,17,-15.20
2020,04,02,02,18,-15.20
2020,04,02,02,19,-15.20
2020,04,02,02,20,-15.30
2020,04,02,02,21,-15.30
2020,04,02,02,22,-15.30
2020,04,02,02,23,-15.40
2020,04,02,02,24,-15.40
2020,04,02,02,25,-15.40
2020,04,02,02,26,-15.50
2020,04,02,02,27,-15.50
2020,04,02,02,28,-15.50
2020,04,02,02,29,-15.60
2020,04,02,02,30,-15.60
2020,04,02,02,31,-15.60
2020,04,02,02,32,-15.60
2020,04,02,02,33,-15.70
2020,04,02,02,34,-15.70
2020,04,02,02,35,-15.70
2020,04,02,02,36,-15.70
2020,04,02,02,37,-15.70
2020,04,02,02,38,-15.70
2020,04,02,02,39,-15.80
2020,04,02,02,40,-15.80
2020,04,02,02,41,-15.80
2020,04,02,02,42,-15.80
2020,04,02,02,43,-15.80
2020,04,02,02,44,-15.80
2020,04,02,02,45,-15.80
2020,04,02,02,46,-15.80
2020,04,02,02,47,-15.80
2020,04,02,02,48,-15.80
2020,04,02,02,49,-15.80
2020,04,02,02,50,-15.80
2020,04,02,02,51,-15.80
2020,04,02,02,52,-15.80
2020,04,02,02,53,-15.70
2020,04,02,02,54,-15.70
2020,04,02,02,55,-15.70
2020,04,02,02,56,-15.70
2020,04,02,02,57,-15.70
2020,04,02,02,58,-15.80
2020,04,02,02,59,-15.80
2020,04,02,03,00,-15.80
2020,04,02,03,01,-15.80
2020,04,02,03,02,-15.80
2020,04,02,03,03,-15.80
2020,04,02,03,04,-15.80
2020,04,02,03,05,-15.80
2020,04,02,03,06,-15.80
2020,04,02,03,07,-15.80
2020,04,02,03,08,-15.80
2020,04,02,03,09,-15.80
2020,04,02,03,10,-15.80
2020,04,02,03,11,-15.80
2020,04,02,03,12,-15.80
2020,04,02,03,13,-15.80
2020,04,02,03,14,-15.80
2020,04,02,03,15,-15.80
2020,04,02,03,16,-15.70
2020,04,02,03,17,-15.70
2020,04,02,03,18,-15.70
2020,04,02,03,19,-15.70
2020,04,02,03,20,-15.70
2020,04,02,03,21,-15.70
2020,04,02,03,22,-15.70
2020,04,02,03,23,-15.80
2020,04,02,03,24,-15.80
2020,04,02,03,25,-15.80
2020,04,02,03,26,-15.80
2020,04,02,03,27,-15.80
2020,04,02,03,28,-15.90
2020,04,02,03,29,-15.90
2020,04,02,03,30,-15.90
2020,04,02,03,31,-15.90
2020,04,02,03,32,-16.00
2020,04,02,03,33,-16.00
2020,04,02,03,34,-16.10
2020,04,02,03,35,-16.10
2020,04,02,03,36,-16.10
2020,04,02,03,37,-16.20
2020,04,02,03,38,-16.20
2020,04,02,03,39,-16.20
2020,04,02,03,40,-16.20
2020,04,02,03,41,-16.20
2020,04,02,03,42,-16.20
2020,04,02,03,43,-16.30
2020,04,02,03,44,-16.30
2020,04,02,03,45,-16.30
2020,04,02,03,46,-16.30
2020,04,02,03,47,-16.30
2020,04,02,03,48,-16.30
2020,04,02,03,49,-16.40
2020,04,02,03,50,-16.40
2020,04,02,03,51,-16.40
2020,04,02,03,52,-16.40
2020,04,02,03,53,-16.40
2020,04,02,03,54,-16.50
2020,04,02,03,55,-16.50
2020,04,02,03,56,-16.50
2020,04,02,03,57,-16.60
2020,04,02,03,58,-16.60
2020,04,02,03,59,-16.60
2020,04,02,04,00,-16.60
2020,04,02,04,01,-16.50
2020,04,02,04,02,-16.50
2020,04,02,04,03,-16.50
2020,04,02,04,04,-16.60
2020,04,02,04,05,-16.60
2020,04,02,04,06,-16.60
2020,04,02,04,07,-16.70
2020,04,02,04,08,-16.70
2020,04,02,04,09,-16.70
2020,04,02,04,10,-16.80
2020,04,02,04,11,-16.80
2020,04,02,04,12,-16.80
2020,04,02,04,13,-16.90
2020,04,02,04,14,-16.90
2020,04,02,04,15,-16.90
2020,04,02,04,16,-16.90
2020,04,02,04,17,-17.00
2020,04,02,04,18,-17.00
2020,04,02,04,19,-17.10
2020,04,02,04,20,-17.10
2020,04,02,04,21,-17.10
2020,04,02,04,22,-17.10
2020,04,02,04,23,-17.20
2020,04,02,04,24,-17.20
2020,04,02,04,25,-17.20
2020,04,02,04,26,-17.20
2020,04,02,04,27,-17.20
2020,04,02,04,28,-17.30
2020,04,02,04,29,-17.30
2020,04,02,04,30,-17.30
2020,04,02,04,31,-17.30
2020,04,02,04,32,-17.30
2020,04,02,04,33,-17.30
2020,04,02,04,34,-17.30
2020,04,02,04,35,-17.30
2020,04,02,04,36,-17.30
2020,04,02,04,37,-17.30
2020,04,02,04,38,-17.30
2020,04,02,04,39,-17.30
2020,04,02,04,40,-17.30
2020,04,02,04,41,-17.30
2020,04,02,04,42,-17.30
2020,04,02,04,43,-17.40
2020,04,02,04,44,-17.40
2020,04,02,04,45,-17.40
2020,04,02,04,46,-17.40
2020,04,02,04,47,-17.40
2020,04,02,04,48,-17.40
2020,04,02,04,49,-17.40
2020,04,02,04,50,-17.50
2020,04,02,04,51,-17.50
2020,04,02,04,52,-17.50
2020,04,02,04,53,-17.50
2020,04,02,04,54,-17.50
2020,04,02,04,55,-17.60
2020,04,02,04,56,-17.60
2020,04,02,04,57,-17.60
2020,04,02,04,58,-17.60
2020,04,02,04,59,-17.70
2020,04,02,05,00,-17.70
2020,04,02,05,01,-17.70
2020,04,02,05,02,-17.70
2020,04,02,05,03,-17.70
2020,04,02,05,04,-17.70
2020,04,02,05,05,-17.70
2020,04,02,05,06,-17.70
2020,04,02,05,07,-17.70
2020,04,02,05,08,-17.70
2020,04,02,05,09,-17.70
2020,04,02,05,10,-17.70
2020,04,02,05,11,-17.70
2020,04,02,05,12,-17.70
2020,04,02,05,13,-17.70
2020,04,02,05,14,-17.70
2020,04,02,05,15,-17.70
2020,04,02,05,16,-17.70
2020,04,02,05,17,-17.70
2020,04,02,05,18,-17.70
2020,04,02,05,19,-17.70
2020,04,02,05,20,-17.70
2020,04,02,05,21,-17.70
2020,04,02,05,22,-17.80
2020,04,02,05,23,-17.80
2020,04,02,05,24,-17.80
2020,04,02,05,25,-17.80
2020,04,02,05,26,-17.80
2020,04,02,05,27,-17.80
2020,04,02,05,28,-17.90
2020,04,02,05,29,-17.90
2020,04,02,05,30,-17.90
2020,04,02,05,31,-18.00
2020,04,02,05,32,-18.00
2020,04,02,05,33,-18.00
2020,04,02,05,34,-18.10
2020,04,02,05,35,-18.10
2020,04,02,05,36,-18.10
2020,04,02,05,37,-18.10
2020,04,02,05,38,-18.10
2020,04,02,05,39,-18.20
2020,04,02,05,40,-18.20
2020,04,02,05,41,-18.20
2020,04,02,05,42,-18.20
2020,04,02,05,43,-18.20
2020,04,02,05,44,-18.30
2020,04,02,05,45,-18.30
2020,04,02,05,46,-18.30
2020,04,02,05,47,-18.30
2020,04,02,05,48,-18.30
2020,04,02,05,49,-18.40
2020,04,02,05,50,-18.40
2020,04,02,05,51,-18.40
2020,04,02,05,52,-18.40
2020,04,02,05,53,-18.40
2020,04,02,05,54,-18.50
2020,04,02,05,55,-18.50
2020,04,02,05,56,-18.50
2020,04,02,05,57,-18.60
2020,04,02,05,58,-18.60
2020,04,02,05,59,-18.60
2020,04,02,06,00,-18.60
2020,04,02,06,01,-18.70
2020,04,02,06,02,-18.70
2020,04,02,06,03,-18.70
2020,04,02,06,04,-18.70
2020,04,02,06,05,-18.70
2020,04,02,06,06,-18.70
2020,04,02,06,07,-18.80
2020,04,02,06,08,-18.80
2020,04,02,06,09,-18.80
2020,04,02,06,10,-18.80
2020,04,02,06,11,-18.80
2020,04,02,06,12,-18.80
2020,04,02,06,13,-18.80
2020,04,02,06,14,-18.80
2020,04,02,06,15,-18.80
2020,04,02,06,16,-18.80
2020,04,02,06,17,-18.80
2020,04,02,06,18,-18.80
2020,04,02,06,19,-18.80
2020,04,02,06,20,-18.80
2020,04,02,06,21,-18.80
2020,04,02,06,22,-18.80
2020,04,02,06,23,-18.80
2020,04,02,06,24,-18.80
2020,04,02,06,25,-18.80
2020,04,02,06,26,-18.80
2020,04,02,06,27,-18.90
2020,04,02,06,28,-18.80
2020,04,02,06,29,-18.80
2020,04,02,06,30,-18.80
2020,04,02,06,31,-18.80
2020,04,02,06,32,-18.80
2020,04,02,06,33,-18.80
2020,04,02,06,34,-18.80
2020,04,02,06,35,-18.80
2020,04,02,06,36,-18.80
2020,04,02,06,37,-18.90
2020,04,02,06,38,-18.90
2020,04,02,06,39,-18.90
2020,04,02,06,40,-18.90
2020,04,02,06,41,-18.90
2020,04,02,06,42,-19.00
2020,04,02,06,43,-19.00
2020,04,02,06,44,-19.00
2020,04,02,06,45,-19.00
2020,04,02,06,46,-18.90
2020,04,02,06,47,-18.90
2020,04,02,06,48,-18.90
2020,04,02,06,49,-18.90
2020,04,02,06,50,-18.90
2020,04,02,06,51,-18.90
2020,04,02,06,52,-18.90
2020,04,02,06,53,-18.90
2020,04,02,06,54,-19.00
2020,04,02,06,55,-18.90
2020,04,02,06,56,-18.90
2020,04,02,06,57,-18.90
2020,04,02,06,58,-18.90
2020,04,02,06,59,-18.90
2020,04,02,07,00,-18.90
2020,04,02,07,01,-18.90
2020,04,02,07,02,-19.00
2020,04,02,07,03,-19.00
2020,04,02,07,04,-19.00
2020,04,02,07,05,-19.00
2020,04,02,07,06,-19.10
2020,04,02,07,07,-19.10
2020,04,02,07,08,-19.10
2020,04,02,07,09,-19.00
2020,04,02,07,10,-19.00
2020,04,02,07,11,-19.00
2020,04,02,07,12,-19.00
2020,04,02,07,13,-19.10
2020,04,02,07,14,-19.10
2020,04,02,07,15,-19.10
2020,04,02,07,16,-19.10
2020,04,02,07,17,-19.10
2020,04,02,07,18,-19.10
2020,04,02,07,19,-19.10
2020,04,02,07,20,-19.10
2020,04,02,07,21,-19.10
2020,04,02,07,22,-19.10
2020,04,02,07,23,-19.10
2020,04,02,07,24,-19.10
2020,04,02,07,25,-19.10
2020,04,02,07,26,-19.10
2020,04,02,07,27,-19.10
2020,04,02,07,28,-19.10
2020,04,02,07,29,-19.10
2020,04,02,07,30,-19.10
2020,04,02,07,31,-19.10
2020,04,02,07,32,-19.10
2020,04,02,07,33,-19.10
2020,04,02,07,34,-19.20
2020,04,02,07,35,-19.20
2020,04,02,07,36,-19.20
2020,04,02,07,37,-19.20
2020,04,02,07,38,-19.20
2020,04,02,07,39,-19.20
2020,04,02,07,40,-19.20
2020,04,02,07,41,-19.20
2020,04,02,07,42,-19.20
2020,04,02,07,43,-19.20
2020,04,02,07,44,-19.20
2020,04,02,07,45,-19.20
2020,04,02,07,46,-19.30
2020,04,02,07,47,-19.40
2020,04,02,07,48,-19.40
2020,04,02,07,49,-19.40
2020,04,02,07,50,-19.40
2020,04,02,07,51,-19.40
2020,04,02,07,52,-19.50
2020,04,02,07,53,-19.50
2020,04,02,07,54,-19.50
2020,04,02,07,55,-19.50
2020,04,02,07,56,-19.50
2020,04,02,07,57,-19.50
2020,04,02,07,58,-19.50
2020,04,02,07,59,-19.50
2020,04,02,08,00,-19.60
2020,04,02,08,01,-19.60
2020,04,02,08,02,-19.60
2020,04,02,08,03,-19.60
2020,04,02,08,04,-19.60
2020,04,02,08,05,-19.60
2020,04,02,08,06,-19.60
2020,04,02,08,07,-19.60
2020,04,02,08,08,-19.60
2020,04,02,08,09,-19.60
2020,04,02,08,10,-19.60
2020,04,02,08,11,-19.60
2020,04,02,08,12,-19.60
2020,04,02,08,13,-19.60
2020,04,02,08,14,-19.60
2020,04,02,08,15,-19.70
2020,04,02,08,16,-19.70
2020,04,02,08,17,-19.70
2020,04,02,08,18,-19.70
2020,04,02,08,19,-19.70
2020,04,02,08,20,-19.70
2020,04,02,08,21,-19.70
2020,04,02,08,22,-19.70
2020,04,02,08,23,-19.70
2020,04,02,08,24,-19.70
2020,04,02,08,25,-19.70
2020,04,02,08,26,-19.70
2020,04,02,08,27,-19.70
2020,04,02,08,28,-19.70
2020,04,02,08,29,-19.70
2020,04,02,08,30,-19.70
2020,04,02,08,31,-19.70
2020,04,02,08,32,-19.70
2020,04,02,08,33,-19.70
2020,04,02,08,34,-19.70
2020,04,02,08,35,-19.70
2020,04,02,08,36,-19.70
2020,04,02,08,37,-19.80
2020,04,02,08,38,-19.80
2020,04,02,08,39,-19.80
2020,04,02,08,40,-19.80
2020,04,02,08,41,-19.80
2020,04,02,08,42,-19.80
2020,04,02,08,43,-19.80
2020,04,02,08,44,-19.80
2020,04,02,08,45,-19.90
2020,04,02,08,46,-19.80
2020,04,02,08,47,-19.80
2020,04,02,08,48,-19.80
2020,04,02,08,49,-19.80
2020,04,02,08,50,-19.80
2020,04,02,08,51,-19.80
2020,04,02,08,52,-19.80
2020,04,02,08,53,-19.80
2020,04,02,08,54,-19.80
2020,04,02,08,55,-19.80
2020,04,02,08,56,-19.80
2020,04,02,08,57,-19.80
2020,04,02,08,58,-19.70
2020,04,02,08,59,-19.70
2020,04,02,09,00,-19.70
2020,04,02,09,01,-19.70
2020,04,02,09,02,-19.70
2020,04,02,09,03,-19.80
2020,04,02,09,04,-19.80
2020,04,02,09,05,-19.70
2020,04,02,09,06,-19.70
2020,04,02,09,07,-19.70
2020,04,02,09,08,-19.70
2020,04,02,09,09,-19.70
2020,04,02,09,10,-19.70
2020,04,02,09,11,-19.70
2020,04,02,09,12,-19.70
2020,04,02,09,13,-19.70
2020,04,02,09,14,-19.70
2020,04,02,09,15,-19.70
2020,04,02,09,16,-19.70
2020,04,02,09,17,-19.60
2020,04,02,09,18,-19.60
2020,04,02,09,19,-19.60
2020,04,02,09,20,-19.60
2020,04,02,09,21,-19.60
2020,04,02,09,22,-19.60
2020,04,02,09,23,-19.60
2020,04,02,09,24,-19.60
2020,04,02,09,25,-19.60
2020,04,02,09,26,-19.60
2020,04,02,09,27,-19.60
2020,04,02,09,28,-19.60
2020,04,02,09,29,-19.60
2020,04,02,09,30,-19.50
2020,04,02,09,31,-19.50
2020,04,02,09,32,-19.50
2020,04,02,09,33,-19.50
2020,04,02,09,34,-19.40
2020,04,02,09,35,-19.40
2020,04,02,09,36,-19.40
2020,04,02,09,37,-19.40
2020,04,02,09,38,-19.30
2020,04,02,09,39,-19.30
2020,04,02,09,40,-19.30
2020,04,02,09,41,-19.30
2020,04,02,09,42,-19.30
2020,04,02,09,43,-19.30
2020,04,02,09,44,-19.20
2020,04,02,09,45,-19.20
2020,04,02,09,46,-19.20
2020,04,02,09,47,-19.20
2020,04,02,09,48,-19.20
2020,04,02,09,49,-19.20
2020,04,02,09,50,-19.20
2020,04,02,09,51,-19.20
2020,04,02,09,52,-19.20
2020,04,02,09,53,-19.10
2020,04,02,09,54,-19.10
2020,04,02,09,55,-19.10
2020,04,02,09,56,-19.10
2020,04,02,09,57,-19.10
2020,04,02,09,58,-19.10
2020,04,02,09,59,-19.10
2020,04,02,10,00,-19.10
2020,04,02,10,01,-19.10
2020,04,02,10,02,-19.10
2020,04,02,10,03,-19.10
2020,04,02,10,04,-19.10
2020,04,02,10,05,-19.10
2020,04,02,10,06,-19.10
2020,04,02,10,07,-19.10
2020,04,02,10,08,-19.10
2020,04,02,10,09,-19.10
2020,04,02,10,10,-19.10
2020,04,02,10,11,-19.00
2020,04,02,10,12,-19.00
2020,04,02,10,13,-19.00
2020,04,02,10,14,-19.00
2020,04,02,10,15,-18.90
2020,04,02,10,16,-18.90
2020,04,02,10,17,-18.80
2020,04,02,10,18,-18.80
2020,04,02,10,19,-18.70
2020,04,02,10,20,-18.70
2020,04,02,10,21,-18.60
2020,04,02,10,22,-18.50
2020,04,02,10,23,-18.40
2020,04,02,10,24,-18.30
2020,04,02,10,25,-18.20
2020,04,02,10,26,-18.10
2020,04,02,10,27,-18.00
2020,04,02,10,28,-17.90
2020,04,02,10,29,-17.80
2020,04,02,10,30,-17.70
2020,04,02,10,31,-17.50
2020,04,02,10,32,-17.30
2020,04,02,10,33,-17.20
2020,04,02,10,34,-17.10
2020,04,02,10,35,-17.00
2020,04,02,10,36,-17.00
2020,04,02,10,37,-16.90
2020,04,02,10,38,-16.80
2020,04,02,10,39,-16.70
2020,04,02,10,40,-16.60
2020,04,02,10,41,-16.60
2020,04,02,10,42,-16.50
2020,04,02,10,43,-16.50
2020,04,02,10,44,-16.40
2020,04,02,10,45,-16.40
2020,04,02,10,46,-16.30
2020,04,02,10,47,-16.20
2020,04,02,10,48,-16.10
2020,04,02,10,49,-16.00
2020,04,02,10,50,-15.90
2020,04,02,10,51,-15.80
2020,04,02,10,52,-15.70
2020,04,02,10,53,-15.60
2020,04,02,10,54,-15.50
2020,04,02,10,55,-15.40
2020,04,02,10,56,-15.40
2020,04,02,10,57,-15.30
2020,04,02,10,58,-15.30
2020,04,02,10,59,-15.30
2020,04,02,11,00,-15.30
2020,04,02,11,01,-15.30
2020,04,02,11,02,-15.30
2020,04,02,11,03,-15.20
2020,04,02,11,04,-15.10
2020,04,02,11,05,-15.00
2020,04,02,11,06,-14.90
2020,04,02,11,07,-14.80
2020,04,02,11,08,-14.70
2020,04,02,11,09,-14.60
2020,04,02,11,10,-14.50
2020,04,02,11,11,-14.40
2020,04,02,11,12,-14.30
2020,04,02,11,13,-14.20
2020,04,02,11,14,-14.10
2020,04,02,11,15,-14.10
2020,04,02,11,16,-14.00
2020,04,02,11,17,-13.90
2020,04,02,11,18,-13.80
2020,04,02,11,19,-13.80
2020,04,02,11,20,-13.70
2020,04,02,11,21,-13.70
2020,04,02,11,22,-13.60
2020,04,02,11,23,-13.50
2020,04,02,11,24,-13.40
2020,04,02,11,25,-13.30
2020,04,02,11,26,-13.30
2020,04,02,11,27,-13.20
2020,04,02,11,28,-13.10
2020,04,02,11,29,-13.00
2020,04,02,11,30,-12.90
2020,04,02,11,31,-12.90
2020,04,02,11,32,-12.80
2020,04,02,11,33,-12.70
2020,04,02,11,34,-12.60
2020,04,02,11,35,-12.50
2020,04,02,11,36,-12.40
2020,04,02,11,37,-12.40
2020,04,02,11,38,-12.20
2020,04,02,11,39,-12.10
2020,04,02,11,40,-12.00
2020,04,02,11,41,-11.80
2020,04,02,11,42,-11.70
2020,04,02,11,43,-11.60
2020,04,02,11,44,-11.50
2020,04,02,11,45,-11.40
2020,04,02,11,46,-11.30
2020,04,02,11,47,-11.30
2020,04,02,11,48,-11.30
2020,04,02,11,49,-11.20
2020,04,02,11,50,-11.20
2020,04,02,11,51,-11.20
2020,04,02,11,52,-11.20
2020,04,02,11,53,-11.20
2020,04,02,11,54,-11.20
2020,04,02,11,55,-11.20
2020,04,02,11,56,-11.20
2020,04,02,11,57,-11.10
2020,04,02,11,58,-11.10
2020,04,02,11,59,-11.10
2020,04,02,12,00,-11.10
2020,04,02,12,01,-11.00
2020,04,02,12,02,-11.00
2020,04,02,12,03,-10.90
2020,04,02,12,04,-10.90
2020,04,02,12,05,-10.80
2020,04,02,12,06,-10.70
2020,04,02,12,07,-10.70
2020,04,02,12,08,-10.60
2020,04,02,12,09,-10.60
2020,04,02,12,10,-10.50
2020,04,02,12,11,-10.50
2020,04,02,12,12,-10.40
2020,04,02,12,13,-10.40
2020,04,02,12,14,-10.30
2020,04,02,12,15,-10.30
2020,04,02,12,16,-10.30
2020,04,02,12,17,-10.30
2020,04,02,12,18,-10.30
2020,04,02,12,19,-10.30
2020,04,02,12,20,-10.30
2020,04,02,12,21,-10.30
2020,04,02,12,22,-10.30
2020,04,02,12,23,-10.30
2020,04,02,12,24,-10.30
2020,04,02,12,25,-10.30
2020,04,02,12,26,-10.20
2020,04,02,12,27,-10.20
2020,04,02,12,28,-10.20
2020,04,02,12,29,-10.10
2020,04,02,12,30,-10.10
2020,04,02,12,31,-10.00
2020,04,02,12,32,-10.00
2020,04,02,12,33,-9.90
2020,04,02,12,34,-9.80
2020,04,02,12,35,-9.80
2020,04,02,12,36,-9.70
2020,04,02,12,37,-9.50
2020,04,02,12,38,-9.40
2020,04,02,12,39,-9.30
2020,04,02,12,40,-9.20
2020,04,02,12,41,-9.10
2020,04,02,12,42,-9.00
2020,04,02,12,43,-9.00
2020,04,02,12,44,-8.90
2020,04,02,12,45,-8.80
2020,04,02,12,46,-8.70
2020,04,02,12,47,-8.60
2020,04,02,12,48,-8.50
2020,04,02,12,49,-8.40
2020,04,02,12,50,-8.30
2020,04,02,12,51,-8.20
2020,04,02,12,52,-8.10
2020,04,02,12,53,-8.00
2020,04,02,12,54,-8.00
2020,04,02,12,55,-7.90
2020,04,02,12,56,-7.80
2020,04,02,12,57,-7.80
2020,04,02,12,58,-7.80
2020,04,02,12,59,-7.80
2020,04,02,13,00,-7.70
2020,04,02,13,01,-7.70
2020,04,02,13,02,-7.60
2020,04,02,13,03,-7.60
2020,04,02,13,04,-7.50
2020,04,02,13,05,-7.50
2020,04,02,13,06,-7.40
2020,04,02,13,07,-7.40
2020,04,02,13,08,-7.30
2020,04,02,13,09,-7.30
2020,04,02,13,10,-7.30
2020,04,02,13,11,-7.30
2020,04,02,13,12,-7.30
2020,04,02,13,13,-7.30
2020,04,02,13,14,-7.30
2020,04,02,13,15,-7.30
2020,04,02,13,16,-7.30
2020,04,02,13,17,-7.30
2020,04,02,13,18,-7.30
2020,04,02,13,19,-7.30
2020,04,02,13,20,-7.30
2020,04,02,13,21,-7.30
2020,04,02,13,22,-7.30
2020,04,02,13,23,-7.30
2020,04,02,13,24,-7.20
2020,04,02,13,25,-7.20
2020,04,02,13,26,-7.20
2020,04,02,13,27,-7.10
2020,04,02,13,28,-7.10
2020,04,02,13,29,-7.00
2020,04,02,13,30,-6.90
2020,04,02,13,31,-6.80
2020,04,02,13,32,-6.80
2020,04,02,13,33,-6.70
2020,04,02,13,34,-6.70
2020,04,02,13,35,-6.60
2020,04,02,13,36,-6.60
2020,04,02,13,37,-6.60
2020,04,02,13,38,-6.60
2020,04,02,13,39,-6.60
2020,04,02,13,40,-6.60
2020,04,02,13,41,-6.50
2020,04,02,13,42,-6.50
2020,04,02,13,43,-6.40
2020,04,02,13,44,-6.30
2020,04,02,13,45,-6.30
2020,04,02,13,46,-6.20
2020,04,02,13,47,-6.20
2020,04,02,13,48,-6.10
2020,04,02,13,49,-6.00
2020,04,02,13,50,-5.90
2020,04,02,13,51,-5.90
2020,04,02,13,52,-5.80
2020,04,02,13,53,-5.80
2020,04,02,13,54,-5.70
2020,04,02,13,55,-5.60
2020,04,02,13,56,-5.60
2020,04,02,13,57,-5.50
2020,04,02,13,58,-5.40
2020,04,02,13,59,-5.40
2020,04,02,14,00,-5.30
2020,04,02,14,01,-5.30
2020,04,02,14,02,-5.30
2020,04,02,14,03,-5.30
2020,04,02,14,04,-5.30
2020,04,02,14,05,-5.30
2020,04,02,14,06,-5.30
2020,04,02,14,07,-5.30
2020,04,02,14,08,-5.30
2020,04,02,14,09,-5.20
2020,04,02,14,10,-5.20
2020,04,02,14,11,-5.20
2020,04,02,14,12,-5.10
2020,04,02,14,13,-5.00
2020,04,02,14,14,-5.00
2020,04,02,14,15,-4.90
2020,04,02,14,16,-4.80
2020,04,02,14,17,-4.80
2020,04,02,14,18,-4.70
2020,04,02,14,19,-4.70
2020,04,02,14,20,-4.60
2020,04,02,14,21,-4.60
2020,04,02,14,22,-4.50
2020,04,02,14,23,-4.40
2020,04,02,14,24,-4.40
2020,04,02,14,25,-4.30
2020,04,02,14,26,-4.30
2020,04,02,14,27,-4.30
2020,04,02,14,28,-4.20
2020,04,02,14,29,-4.20
2020,04,02,14,30,-4.20
2020,04,02,14,31,-4.20
2020,04,02,14,32,-4.10
2020,04,02,14,33,-4.10
2020,04,02,14,34,-4.00
2020,04,02,14,35,-4.00
2020,04,02,14,36,-3.90
2020,04,02,14,37,-3.90
2020,04,02,14,38,-3.80
2020,04,02,14,39,-3.80
2020,04,02,14,40,-3.70
2020,04,02,14,41,-3.70
2020,04,02,14,42,-3.70
2020,04,02,14,43,-3.60
2020,04,02,14,44,-3.60
2020,04,02,14,45,-3.60
2020,04,02,14,46,-3.60
2020,04,02,14,47,-3.50
2020,04,02,14,48,-3.50
2020,04,02,14,49,-3.50
2020,04,02,14,50,-3.50
2020,04,02,14,51,-3.40
2020,04,02,14,52,-3.40
2020,04,02,14,53,-3.30
2020,04,02,14,54,-3.30
2020,04,02,14,55,-3.30
2020,04,02,14,56,-3.20
2020,04,02,14,57,-3.20
2020,04,02,14,58,-3.10
2020,04,02,14,59,-3.00
2020,04,02,15,00,-3.00
2020,04,02,15,01,-3.00
2020,04,02,15,02,-2.90
2020,04,02,15,03,-2.90
2020,04,02,15,04,-2.80
2020,04,02,15,05,-2.80
2020,04,02,15,06,-2.80
2020,04,02,15,07,-2.80
2020,04,02,15,08,-2.70
2020,04,02,15,09,-2.70
2020,04,02,15,10,-2.60
2020,04,02,15,11,-2.60
2020,04,02,15,12,-2.50
2020,04,02,15,13,-2.40
2020,04,02,15,14,-2.30
2020,04,02,15,15,-2.20
2020,04,02,15,16,-2.10
2020,04,02,15,17,-2.00
2020,04,02,15,18,-1.90
2020,04,02,15,19,-1.90
2020,04,02,15,20,-1.80
2020,04,02,15,21,-1.70
2020,04,02,15,22,-1.70
2020,04,02,15,23,-1.70
2020,04,02,15,24,-1.60
2020,04,02,15,25,-1.60
2020,04,02,15,26,-1.50
2020,04,02,15,27,-1.50
2020,04,02,15,28,-1.50
2020,04,02,15,29,-1.50
2020,04,02,15,30,-1.40
2020,04,02,15,31,-1.40
2020,04,02,15,32,-1.30
2020,04,02,15,33,-1.30
2020,04,02,15,34,-1.20
2020,04,02,15,35,-1.20
2020,04,02,15,36,-1.10
2020,04,02,15,37,-1.10
2020,04,02,15,38,-1.10
2020,04,02,15,39,-1.10
2020,04,02,15,40,-1.10
2020,04,02,15,41,-1.10
2020,04,02,15,42,-1.20
2020,04,02,15,43,-1.20
2020,04,02,15,44,-1.20
2020,04,02,15,45,-1.20
2020,04,02,15,46,-1.20
2020,04,02,15,47,-1.30
2020,04,02,15,48,-1.30
2020,04,02,15,49,-1.30
2020,04,02,15,50,-1.30
2020,04,02,15,51,-1.30
2020,04,02,15,52,-1.30
2020,04,02,15,53,-1.30
2020,04,02,15,54,-1.30
2020,04,02,15,55,-1.30
2020,04,02,15,56,-1.30
2020,04,02,15,57,-1.30
2020,04,02,15,58,-1.20
2020,04,02,15,59,-1.20
2020,04,02,16,00,-1.20
2020,04,02,16,01,-1.20
2020,04,02,16,02,-1.20
2020,04,02,16,03,-1.20
2020,04,02,16,04,-1.20
2020,04,02,16,05,-1.20
2020,04,02,16,06,-1.20
2020,04,02,16,07,-1.20
2020,04,02,16,08,-1.10
2020,04,02,16,09,-1.10
2020,04,02,16,10,-1.10
2020,04,02,16,11,-1.00
2020,04,02,16,12,-1.00
2020,04,02,16,13,-1.00
2020,04,02,16,14,-1.00
2020,04,02,16,15,-0.90
2020,04,02,16,16,-0.90
2020,04,02,16,17,-0.90
2020,04,02,16,18,-0.80
2020,04,02,16,19,-0.80
2020,04,02,16,20,-0.70
2020,04,02,16,21,-0.70
2020,04,02,16,22,-0.60
2020,04,02,16,23,-0.50
2020,04,02,16,24,-0.50
2020,04,02,16,25,-0.40
2020,04,02,16,26,-0.50
2020,04,02,16,27,-0.60
2020,04,02,16,28,-0.70
2020,04,02,16,29,-0.80
2020,04,02,16,30,-0.80
2020,04,02,16,31,-0.90
2020,04,02,16,32,-1.00
2020,04,02,16,33,-1.00
2020,04,02,16,34,-1.00
2020,04,02,16,35,-1.00
2020,04,02,16,36,-1.00
2020,04,02,16,37,-0.90
2020,04,02,16,38,-0.90
2020,04,02,16,39,-0.80
2020,04,02,16,40,-0.70
2020,04,02,16,41,-0.70
2020,04,02,16,42,-0.60
2020,04,02,16,43,-0.60
2020,04,02,16,44,-0.60
2020,04,02,16,45,-0.60
2020,04,02,16,46,-0.50